Wind_Speed
27 27 26 26 25 25 24 24 23 22 21 20 19 18 17 16 14 14 13 11 10 9 8 7 6 6 6 6 5 6 7 8 9 9 10 11 11 12 13 14 14 15 16
29 29 28 28 27 27 26 26 25 24 23 22 21 20 19 18 17 15 14 13 12 11 10 9 8 7 7 7 7 7 8 9 10 10 10 11 12 13 14 14 15 16 17
31 31 30 29 29 29 28 28 27 26 25 24 23 22 21 20 19 17 16 15 14 13 12 10 9 8 8 8 8 8 9 9 10 10 11 12 13 14 14 15 16 17 17
33 33 32 32 31 30 30 30 29 28 28 27 25 24 23 21 20 19 18 17 15 14 13 12 11 10 9 9 9 9 10 10 11 11 12 13 13 14 15 15 16 17 17
35 35 34 34 33 32 32 31 31 30 30 29 27 26 25 23 22 21 19 18 16 15 14 13 12 11 11 10 10 10 10 11 11 12 13 13 14 14 15 16 17 17 18
37 37 36 35 35 35 34 33 33 32 31 30 29 28 27 25 24 23 21 20 18 17 16 14 14 13 12 12 11 11 11 12 12 13 13 14 14 15 16 16 17 17 18
40 39 38 37 37 37 36 36 35 34 33 32 31 30 28 27 26 24 23 21 20 18 17 16 15 14 13 13 12 12 12 13 13 13 14 14 15 16 16 17 17 18 19
42 42 41 39 38 38 38 38 37 36 35 34 33 32 30 29 27 26 24 23 21 20 19 18 17 16 15 14 13 13 13 14 14 14 15 15 16 16 17 17 18 19 20
45 44 43 42 41 40 40 39 39 38 37 36 34 33 32 31 29 27 26 24 23 21 20 19 18 17 16 15 15 14 14 15 15 15 16 16 16 17 18 18 19 20 21
47 46 45 45 44 43 42 41 41 40 39 38 36 35 34 32 31 29 27 26 24 23 21 20 19 18 17 16 16 15 16 16 15 16 16 17 17 18 18 18 19 20 21
49 48 47 46 46 45 44 43 43 42 41 39 38 37 35 34 32 31 29 27 26 24 23 21 20 19 18 17 17 16 17 16 16 16 17 17 18 18 18 19 20 21 22
50 50 49 48 48 47 46 45 44 44 43 41 40 39 37 35 33 32 30 29 27 25 24 23 21 20 19 18 17 17 17 17 16 17 17 18 18 19 19 20 21 22 23
52 51 51 50 50 49 48 47 46 45 44 43 41 40 38 37 35 33 31 30 29 27 25 24 23 21 20 19 18 18 18 17 17 17 18 18 19 20 20 21 22 23 24
55 53 53 52 52 51 50 49 48 46 45 44 43 41 40 38 36 35 33 31 30 28 26 25 24 23 22 20 19 19 18 18 18 18 19 19 20 21 21 22 23 24 25
57 56 55 54 54 53 52 50 49 47 46 45 44 42 41 39 38 36 34 33 31 29 28 26 25 24 23 22 20 20 19 19 18 19 20 20 21 22 22 23 24 25 26
59 58 57 56 55 54 53 52 50 48 47 46 45 44 42 41 39 38 36 34 32 30 29 28 26 25 24 23 21 20 20 20 20 20 20 21 22 23 24 24 25 26 28
61 60 58 58 57 55 54 53 52 50 48 47 46 45 44 42 40 39 38 36 34 32 30 29 27 26 25 24 22 21 21 21 21 21 21 22 23 24 25 26 26 28 29
62 61 59 58 57 56 55 54 53 51 49 48 47 45 44 43 41 40 39 37 35 33 31 30 28 27 26 24 23 23 22 22 22 22 23 24 24 25 26 27 28 29 30
62 61 60 59 58 57 56 55 53 52 50 49 48 46 44 43 42 40 39 38 36 34 32 31 29 28 27 26 24 23 23 22 23 23 24 25 26 27 27 28 29 30 31
63 62 60 60 58 58 57 56 54 53 51 50 48 47 45 44 43 42 40 38 36 35 33 32 30 29 28 26 25 25 24 24 24 25 25 26 27 27 28 29 30 31 33
62 62 61 60 59 58 58 56 55 53 52 51 50 48 46 45 44 42 40 39 37 35 34 33 31 30 28 27 26 26 25 25 25 26 26 27 28 28 29 30 31 33 34
61 62 62 60 60 59 57 56 55 54 53 52 51 49 47 46 45 43 41 39 38 36 35 33 32 30 29 28 27 27 26 26 26 27 27 28 28 29 29 31 32 34 35
61 62 62 60 60 59 57 56 55 55 54 53 52 50 48 46 45 44 42 41 39 37 36 34 33 32 30 30 29 28 28 27 28 28 28 29 29 30 31 32 34 35 36
60 62 62 61 60 59 57 56 55 55 53 52 51 50 49 48 46 45 44 42 40 38 36 35 35 33 32 31 30 29 29 29 29 29 29 30 30 31 32 33 35 36 37
60 62 62 61 61 59 58 56 55 54 53 53 52 51 50 48 47 46 44 43 41 39 38 36 35 34 33 32 31 31 30 30 30 30 31 31 32 32 33 34 36 37 38
61 61 63 62 60 60 58 57 55 54 53 53 52 52 50 49 48 47 45 44 42 40 39 38 36 35 34 34 33 32 31 31 31 32 32 32 32 33 34 35 36 37 38
Wind_Direction
235 234 233 231 231 230 229 227 225 224 223 221 220 221 220 219 220 219 221 222 224 226 230 236 250 262 274 283 289 298 306 312 316 320 323 325 326 327 328 328 327 327 326
236 234 233 231 230 230 229 227 226 225 224 222 222 222 223 223 224 223 224 225 227 230 234 240 251 260 270 278 283 291 298 305 310 314 317 320 321 323 325 325 325 326 325
236 234 232 231 230 230 228 227 226 226 225 224 224 224 225 225 226 227 227 227 229 233 237 242 250 258 268 276 281 285 292 301 306 310 314 317 318 320 321 322 323 324 324
237 235 232 230 230 229 228 226 226 226 226 226 226 226 227 227 228 228 229 229 230 233 238 243 249 258 269 275 278 282 289 297 304 307 311 314 317 318 319 321 322 322 323
235 234 233 231 230 228 227 226 227 227 227 227 227 227 228 229 230 230 230 230 231 234 239 244 249 260 267 272 276 281 288 294 301 305 309 312 315 316 318 319 321 321 322
234 233 232 231 230 228 227 226 227 227 228 228 228 228 228 230 231 231 231 230 232 236 240 245 251 260 264 269 273 280 286 292 298 301 305 309 312 314 317 319 321 321 322
234 232 232 231 231 229 228 227 227 227 228 228 229 229 229 230 231 232 231 231 233 236 240 246 252 259 263 266 270 278 285 289 294 298 302 306 310 312 315 318 320 320 321
233 232 231 230 230 230 229 227 227 227 228 229 229 230 230 230 231 232 232 232 234 237 242 247 252 258 262 264 268 276 283 287 291 296 300 304 307 310 313 316 317 318 319
233 231 230 230 230 229 229 228 227 227 228 229 230 230 231 231 231 232 232 232 234 238 242 247 251 256 260 262 268 275 281 285 289 293 298 303 306 309 311 313 315 317 318
232 231 230 229 229 229 229 228 227 227 227 228 229 230 230 231 231 231 232 233 235 238 242 246 250 254 257 261 266 274 280 284 287 291 296 301 304 307 310 312 314 316 318
232 230 229 229 228 228 229 228 228 227 227 227 228 229 230 230 230 231 232 233 235 238 242 246 250 252 256 260 265 272 279 282 287 291 296 300 303 306 309 311 314 316 317
231 230 228 228 228 227 228 228 228 227 227 227 228 229 230 230 230 230 232 234 236 238 241 245 248 252 257 261 265 271 277 280 285 290 295 298 302 306 308 310 313 315 316
229 228 227 227 226 226 227 227 227 227 227 227 227 228 230 230 230 231 232 234 236 237 240 243 248 252 256 261 265 271 276 279 283 289 293 296 300 305 307 309 312 313 314
227 226 226 225 225 225 226 227 227 227 227 226 226 228 229 230 230 231 232 234 236 237 239 243 247 251 256 260 265 270 274 278 282 288 292 295 299 302 305 308 311 313 313
226 225 225 225 224 224 225 225 226 226 226 226 226 227 229 229 230 231 232 233 235 237 239 243 247 251 255 259 263 269 273 277 281 286 291 295 297 301 303 307 309 312 313
225 224 224 224 223 223 224 224 225 225 225 225 226 226 228 228 229 231 232 233 235 237 239 243 246 250 253 258 262 267 272 275 279 285 291 295 297 300 303 306 308 310 312
224 223 223 223 223 222 223 223 224 224 225 225 226 226 227 227 228 229 231 233 235 237 240 243 246 249 253 257 261 266 270 274 278 283 289 294 297 300 303 305 306 309 311
223 222 222 222 222 221 222 222 223 223 224 224 224 226 226 227 227 228 230 232 235 237 239 242 245 248 252 255 260 265 269 273 278 283 288 293 296 300 302 304 305 308 310
223 221 220 221 221 221 221 221 222 223 222 223 224 224 225 226 226 227 229 231 234 236 238 241 245 248 251 255 260 265 269 274 279 283 287 292 296 298 301 303 305 307 309
222 221 219 220 220 220 220 221 222 222 222 222 222 223 224 225 226 227 229 230 233 235 237 241 244 247 251 255 259 264 269 273 278 283 287 291 295 297 300 302 304 307 308
221 219 218 218 218 219 219 220 221 222 223 223 222 222 223 224 225 226 228 230 232 235 237 240 243 246 251 255 259 264 269 273 278 281 286 289 293 297 299 301 303 306 308
220 218 217 217 217 218 218 220 221 222 222 223 223 222 222 224 224 225 228 230 231 234 237 240 243 246 250 254 259 264 268 273 277 281 285 288 292 296 299 301 303 306 308
219 217 217 216 216 216 218 220 220 221 222 223 223 223 223 223 224 225 228 229 231 233 236 240 243 247 250 254 258 263 268 273 277 281 284 288 291 295 298 301 303 305 307
217 216 216 215 215 216 217 219 220 221 222 223 223 223 224 224 225 226 228 230 232 233 236 239 243 247 250 254 259 264 268 272 276 280 284 287 290 293 297 299 302 304 306
216 215 215 215 214 215 217 218 219 219 221 222 223 223 224 225 225 226 227 229 232 234 236 240 244 246 250 254 259 264 268 272 276 279 282 286 289 292 295 299 301 303 305
215 215 214 215 214 215 216 217 218 219 220 221 222 223 223 224 226 227 228 230 232 235 237 241 244 247 250 254 259 263 268 272 275 278 281 285 288 291 295 298 300 303 304
Height
5852 5854 5856 5858 5860 5862 5864 5865 5867 5868 5869 5871 5872 5873 5873 5874 5875 5875 5876 5876 5876 5876 5876 5875 5875 5875 5874 5874 5873 5873 5872 5871 5870 5869 5868 5866 5865 5863 5862 5860 5858 5856 5854
5847 5850 5852 5854 5856 5858 5860 5862 5863 5865 5866 5868 5869 5870 5871 5872 5873 5873 5874 5874 5874 5874 5874 5874 5874 5873 5873 5872 5872 5871 5871 5870 5869 5867 5866 5865 5863 5862 5860 5858 5856 5854 5852
5842 5844 5846 5849 5851 5853 5855 5858 5860 5861 5863 5865 5866 5867 5868 5869 5870 5871 5872 5872 5872 5872 5872 5872 5872 5872 5871 5871 5870 5870 5869 5868 5867 5866 5864 5863 5861 5860 5858 5856 5854 5852 5850
5836 5838 5841 5843 5846 5848 5851 5853 5855 5857 5859 5861 5863 5864 5866 5867 5867 5868 5869 5869 5870 5870 5870 5870 5870 5870 5869 5869 5868 5868 5867 5866 5865 5864 5862 5861 5859 5858 5856 5854 5852 5850 5848
5830 5832 5835 5838 5840 5843 5846 5848 5851 5853 5855 5857 5859 5861 5862 5863 5864 5865 5866 5867 5867 5868 5868 5868 5868 5868 5867 5867 5866 5866 5865 5864 5863 5862 5860 5859 5857 5855 5854 5852 5850 5847 5845
5823 5825 5829 5832 5834 5837 5840 5843 5845 5848 5850 5853 5855 5857 5858 5860 5861 5862 5863 5864 5864 5865 5865 5865 5865 5865 5865 5865 5864 5864 5863 5862 5861 5860 5858 5856 5855 5853 5851 5849 5847 5845 5842
5815 5818 5822 5825 5828 5831 5834 5837 5840 5843 5845 5848 5850 5852 5854 5856 5857 5858 5860 5860 5861 5862 5862 5863 5863 5863 5863 5862 5862 5861 5860 5859 5859 5857 5856 5854 5852 5851 5849 5846 5844 5842 5839
5807 5811 5814 5818 5821 5824 5828 5831 5834 5837 5840 5842 5845 5847 5849 5851 5853 5854 5856 5857 5858 5859 5859 5859 5860 5860 5860 5860 5859 5859 5858 5857 5856 5855 5853 5852 5850 5848 5846 5844 5841 5839 5836
5799 5802 5806 5810 5814 5817 5821 5824 5827 5830 5834 5837 5839 5842 5844 5846 5848 5850 5852 5853 5854 5855 5856 5856 5857 5857 5857 5857 5856 5856 5855 5854 5853 5852 5850 5849 5847 5845 5843 5841 5838 5836 5833
5789 5794 5798 5802 5806 5809 5813 5817 5820 5824 5827 5830 5834 5836 5839 5841 5843 5845 5847 5849 5850 5851 5852 5852 5853 5853 5853 5853 5853 5853 5852 5851 5850 5849 5847 5846 5844 5842 5840 5837 5835 5832 5830
5780 5784 5789 5793 5798 5802 5805 5809 5813 5816 5820 5824 5827 5830 5833 5835 5838 5840 5843 5844 5846 5847 5848 5849 5849 5850 5850 5850 5850 5849 5849 5848 5847 5846 5844 5843 5841 5839 5837 5834 5831 5829 5826
5769 5774 5779 5784 5789 5793 5797 5801 5805 5809 5813 5817 5820 5823 5827 5830 5832 5835 5837 5839 5841 5843 5844 5845 5845 5846 5846 5846 5846 5846 5845 5844 5843 5842 5841 5839 5837 5835 5833 5831 5828 5825 5822
5758 5763 5769 5774 5779 5784 5788 5793 5797 5801 5805 5809 5813 5817 5820 5823 5827 5829 5832 5834 5836 5838 5839 5840 5841 5842 5843 5843 5842 5842 5842 5841 5840 5839 5837 5836 5834 5832 5829 5827 5824 5821 5818
5746 5752 5758 5763 5769 5774 5779 5784 5789 5793 5798 5802 5806 5810 5813 5817 5821 5824 5827 5829 5831 5833 5835 5836 5837 5838 5838 5839 5839 5838 5838 5837 5836 5835 5833 5832 5830 5828 5826 5823 5820 5817 5814
5734 5740 5747 5753 5758 5764 5770 5775 5780 5785 5790 5794 5798 5802 5806 5810 5814 5818 5821 5823 5826 5828 5830 5831 5832 5833 5834 5834 5834 5834 5834 5833 5832 5831 5829 5828 5826 5824 5821 5819 5816 5813 5810
5721 5728 5735 5742 5748 5754 5760 5766 5771 5776 5781 5786 5791 5795 5799 5803 5807 5811 5814 5818 5820 5822 5824 5826 5827 5828 5829 5830 5830 5830 5829 5829 5828 5826 5825 5823 5821 5819 5817 5814 5812 5809 5805
5707 5715 5723 5730 5737 5744 5750 5756 5762 5767 5773 5778 5783 5787 5792 5796 5800 5804 5808 5811 5814 5817 5819 5820 5822 5823 5824 5825 5825 5825 5825 5824 5823 5822 5820 5819 5817 5815 5812 5810 5807 5804 5800
5694 5702 5711 5719 5727 5734 5740 5746 5753 5758 5764 5770 5775 5780 5784 5789 5793 5797 5801 5805 5808 5811 5813 5815 5817 5818 5819 5820 5820 5820 5820 5819 5818 5817 5815 5814 5812 5810 5807 5805 5802 5798 5795
5681 5690 5699 5708 5716 5724 5730 5737 5743 5749 5755 5761 5767 5772 5777 5781 5786 5790 5795 5798 5802 5805 5807 5809 5811 5813 5814 5815 5815 5815 5815 5814 5813 5812 5810 5809 5807 5805 5802 5799 5796 5793 5789
5668 5678 5687 5696 5705 5713 5720 5727 5734 5740 5747 5753 5758 5764 5769 5774 5779 5783 5788 5791 5795 5798 5801 5804 5806 5807 5808 5809 5810 5810 5809 5809 5808 5807 5805 5803 5801 5799 5796 5794 5791 5787 5783
5656 5665 5675 5685 5693 5702 5710 5717 5724 5732 5738 5744 5750 5756 5761 5766 5771 5776 5780 5784 5788 5792 5795 5797 5799 5801 5802 5803 5804 5804 5804 5803 5802 5801 5800 5798 5796 5793 5791 5788 5785 5781 5777
5644 5654 5664 5673 5683 5692 5701 5708 5715 5723 5729 5735 5741 5747 5752 5758 5763 5768 5773 5777 5781 5785 5788 5791 5793 5795 5796 5797 5798 5798 5798 5798 5796 5795 5794 5792 5790 5788 5785 5782 5779 5775 5771
5633 5643 5653 5663 5673 5682 5690 5698 5705 5712 5719 5726 5732 5739 5745 5750 5756 5761 5766 5770 5774 5778 5781 5784 5786 5789 5790 5791 5791 5792 5792 5792 5790 5789 5788 5786 5784 5782 5779 5776 5772 5769 5765
5623 5633 5643 5653 5662 5672 5680 5688 5696 5704 5711 5719 5725 5731 5736 5742 5748 5753 5758 5763 5767 5771 5774 5777 5779 5781 5783 5784 5785 5786 5786 5785 5784 5783 5782 5780 5778 5775 5773 5769 5766 5762 5758
5612 5621 5632 5641 5652 5661 5670 5678 5686 5695 5702 5709 5716 5722 5728 5734 5740 5745 5750 5755 5759 5764 5767 5770 5772 5774 5776 5778 5779 5779 5779 5778 5778 5777 5776 5774 5772 5769 5766 5763 5759 5755 5751
5601 5611 5621 5631 5641 5651 5660 5669 5677 5685 5693 5700 5707 5713 5720 5726 5732 5737 5743 5747 5752 5756 5760 5763 5765 5767 5769 5770 5772 5772 5772 5772 5771 5770 5769 5767 5765 5762 5759 5756 5752 5748 5744